STARLINK-3296 (50168 NORAD) Tracking and Keplerian Element Data

This shows tracking and keplerian element data for the satellite.

Feedback or suggestion? Click here.




ElementValue
Catalog50168
NameSTARLINK-3296
Epoch Orbit130
Epoch Day140.58334491
Epoch Year2022
RAAN5.0564
Inclination53.2174
Eccentricity0.0001605
Argument of Perigee58.3614
Mean Anonmoly268.1306
Mean Motion15.0883561
Decay Rate-1.747E-05
L11 50168U 21125N 22140.58334491 -.00001747 00000+0 -91699-4 0 9995
L22 50168 53.2174 5.0564 0001605 58.3614 268.1306 15.08835610 1300

Live tracking and technical data element details for STARLINK-3296 (NORAD 50168). STARLINK-3296 can be tracked NOW for your location showing map with azimuth and elevation plus other details from your city location.

Track the satellite on the map from your city or location and see movement details for azimuth, elevation, latitude, longitude, range, height, and movement on the map or in text.







IsCatalogInMostPopularTable: catalog: 50168, numindb: 22
Update: records affected: 1



GetName: 50168 STARLINK-3296

Hit Count: updated at: Sun, 22 May 2022 03:51:11 GMT